Lyndonville, VT

10:30 AM EDT on August 31, 2016 (GMT -0400)
Lyndonville

Weather History for KCDA - April, 2013

Change the Weather History Date:

Monday, April 22, 2013

  Actual Average (K1V4) Record (K1V4)
Temperature  
Mean Temperature 38 °F 47 °F  
Max Temperature 55 °F 60 °F 86 °F (1954)
Min Temperature 21 °F 35 °F 18 °F (1981)
Degree Days  
Heating Degree Days 27 18  
Month to date heating degree days 492  
Since 1 July heating degree days 7292  
Cooling Degree Days 0 0  
Month to date cooling degree days 0  
Year to date cooling degree days 0  
Moisture  
Dew Point 11 °F    
Average Humidity 38    
Maximum Humidity 77    
Minimum Humidity 12    
Precipitation  
Precipitation 0.00 in 0.09 in 0.88 in (2000)
Month to date precipitation 2.06  
Year to date precipitation 9.25  
Sea Level Pressure  
Sea Level Pressure 30.65 in    
Wind  
Wind Speed 3 mph (SSE)    
Max Wind Speed 12 mph    
Max Gust Speed 21 mph    
Visibility 10 miles    
Events      
T = Trace of Precipitation, MM = Missing Value Source: NWS Daily Summary

Daily Weather History Graph

Daily Weather History Graph

Search for Another Location

Airport or City:

Trip Planner

Search our weather history database for the weather conditions in past years. The results will help you decide how hot, cold, wet, or windy it might be!

Date:

Astronomy

Apr. 22, 2013 Rise Set
Actual Time 5:51 AM EDT 7:41 PM EDT
Civil Twilight 5:20 AM EDT 8:13 PM EDT
Nautical Twilight 4:42 AM EDT 8:51 PM EDT
Astronomical Twilight 4:01 AM EDT 9:32 PM EDT
Moon 4:20 PM EDT (4/22) 3:53 AM EDT (4/22)
Length of Visible Light 14h 52m
Length of Day
13h 49m
Waxing Gibbous, 87% of the Moon is Illuminated
Apr 22
Waxing Gibbous
Apr 25
Full
May 2
Last Quarter
May 9
New
May 18
First Quarter

Hourly Weather History & Observations

Time (EDT) Temp. Windchill Dew Point Humidity Pressure Visibility Wind Dir Wind Speed Gust Speed Precip Events Conditions
12:15 AM 28.0 °F - 13.5 °F 54% 30.67 in 10.0 mi Calm Calm - N/A   Clear
12:35 AM 27.1 °F - 15.3 °F 61% 30.68 in 10.0 mi Calm Calm - N/A   Clear
12:55 AM 25.0 °F 20.7 °F 15.3 °F 67% 30.68 in 10.0 mi ESE 3.5 mph - N/A   Clear
1:15 AM 27.1 °F - 15.4 °F 61% 30.68 in 10.0 mi Calm Calm - N/A   Clear
1:35 AM 27.0 °F - 14.5 °F 60% 30.68 in 10.0 mi Calm Calm - N/A   Clear
1:55 AM 27.5 °F - 14.5 °F 58% 30.68 in 10.0 mi Calm Calm - N/A   Clear
2:15 AM 27.1 °F - 14.5 °F 59% 30.68 in 10.0 mi Calm Calm - N/A   Clear
2:35 AM 25.2 °F - 14.5 °F 64% 30.68 in 10.0 mi Calm Calm - N/A   Clear
2:55 AM 25.5 °F - 14.5 °F 63% 30.68 in 10.0 mi Calm Calm - N/A   Clear
3:15 AM 25.5 °F - 15.3 °F 65% 30.68 in 10.0 mi Calm Calm - N/A   Clear
3:35 AM 24.8 °F - 15.8 °F 69% 30.68 in 10.0 mi Calm Calm - N/A   Clear
3:55 AM 23.5 °F - 15.3 °F 71% 30.68 in 10.0 mi Calm Calm - N/A   Clear
4:15 AM 24.6 °F - 14.7 °F 66% 30.68 in 10.0 mi Calm Calm - N/A   Clear
4:35 AM 23.9 °F - 15.4 °F 70% 30.68 in 10.0 mi Calm Calm - N/A   Clear
4:55 AM 22.8 °F - 14.7 °F 71% 30.69 in 10.0 mi Calm Calm - N/A   Clear
5:15 AM 22.6 °F - 15.8 °F 75% 30.69 in 10.0 mi Calm Calm - N/A   Clear
5:35 AM 23.0 °F - 16.2 °F 75% 30.70 in 10.0 mi Calm Calm - N/A   Clear
5:55 AM 22.8 °F - 16.2 °F 76% 30.70 in 10.0 mi Calm Calm - N/A   Clear
6:15 AM 21.9 °F - 15.6 °F 77% 30.71 in 10.0 mi Calm Calm - N/A   Clear
6:35 AM 22.8 °F - 16.5 °F 77% 30.71 in 10.0 mi Calm Calm - N/A   Clear
6:55 AM 24.6 °F - 18.1 °F 76% 30.72 in 10.0 mi Calm Calm - N/A   Clear
7:15 AM 25.9 °F - 18.9 °F 75% 30.73 in 10.0 mi Calm Calm - N/A   Clear
7:35 AM 27.1 °F - 18.1 °F 69% 30.73 in 10.0 mi Calm Calm - N/A   Clear
7:55 AM 29.3 °F - 19.0 °F 66% 30.74 in 10.0 mi Calm Calm - N/A   Clear
8:15 AM 31.3 °F - 17.8 °F 57% 30.73 in 10.0 mi Calm Calm - N/A   Clear
8:35 AM 33.4 °F - 17.2 °F 52% 30.73 in 10.0 mi Calm Calm - N/A   Clear
8:55 AM 35.2 °F - 15.6 °F 45% 30.72 in 10.0 mi Calm Calm - N/A   Clear
9:15 AM 38.3 °F 35.9 °F 14.2 °F 37% 30.72 in 10.0 mi SSW 3.5 mph - N/A   Clear
9:35 AM 39.4 °F 34.5 °F 11.8 °F 32% 30.72 in 10.0 mi South 6.9 mph - N/A   Clear
9:55 AM 41.2 °F 37.3 °F 11.3 °F 30% 30.72 in 10.0 mi SSE 5.8 mph - N/A   Clear
10:15 AM 43.2 °F 39.7 °F 10.6 °F 27% 30.71 in 10.0 mi South 5.8 mph - N/A   Clear
10:35 AM 44.6 °F 40.2 °F 9.7 °F 24% 30.71 in 10.0 mi South 8.1 mph - N/A   Clear
10:55 AM 45.7 °F 42.0 °F 10.9 °F 24% 30.70 in 10.0 mi South 6.9 mph - N/A   Clear
11:15 AM 45.9 °F 42.9 °F 10.8 °F 24% 30.70 in 10.0 mi SE 5.8 mph - N/A   Clear
11:35 AM 47.1 °F - 10.0 °F 22% 30.70 in 10.0 mi South 9.2 mph - N/A   Clear
11:55 AM 47.1 °F - 8.8 °F 21% 30.70 in 10.0 mi SSW 5.8 mph - N/A   Clear
12:15 PM 48.0 °F - 7.5 °F 19% 30.70 in 10.0 mi SE 5.8 mph - N/A   Clear
12:35 PM 48.2 °F - 8.1 °F 20% 30.68 in 10.0 mi SSW 4.6 mph - N/A   Clear
12:55 PM 49.3 °F - 7.7 °F 19% 30.67 in 10.0 mi South 10.4 mph - N/A   Clear
1:15 PM 49.5 °F - 6.8 °F 18% 30.65 in 10.0 mi South 8.1 mph - N/A   Clear
1:35 PM 50.5 °F - 6.3 °F 17% 30.64 in 10.0 mi SSE 4.6 mph - N/A   Clear
1:55 PM 52.3 °F - 4.3 °F 14% 30.63 in 10.0 mi SE 8.1 mph - N/A   Clear
2:15 PM 52.0 °F - 2.5 °F 13% 30.62 in 10.0 mi ESE 4.6 mph - N/A   Clear
2:35 PM 54.0 °F - 1.4 °F 12% 30.62 in 10.0 mi SSW 8.1 mph 16.1 mph N/A   Clear
2:55 PM 54.3 °F - 3.2 °F 13% 30.60 in 10.0 mi SSW 11.5 mph 19.6 mph N/A   Clear
3:15 PM 54.1 °F - 3.0 °F 13% 30.59 in 10.0 mi South 11.5 mph 19.6 mph N/A   Clear
3:35 PM 54.3 °F - 1.4 °F 12% 30.59 in 10.0 mi South 10.4 mph 20.7 mph N/A   Clear
3:55 PM 54.5 °F - 3.4 °F 13% 30.59 in 10.0 mi SE 9.2 mph 18.4 mph N/A   Clear
4:15 PM 54.7 °F - 4.5 °F 13% 30.57 in 10.0 mi South 10.4 mph 17.3 mph N/A   Clear
4:35 PM 55.0 °F - 5.4 °F 14% 30.57 in 10.0 mi South 11.5 mph - N/A   Clear
4:55 PM 54.5 °F - 6.6 °F 15% 30.56 in 10.0 mi South 6.9 mph - N/A   Clear
5:15 PM 54.1 °F - 6.6 °F 15% 30.55 in 10.0 mi SSW 6.9 mph 16.1 mph N/A   Clear
5:35 PM 53.6 °F - 7.2 °F 15% 30.55 in 10.0 mi SSW 8.1 mph - N/A   Clear
5:55 PM 53.4 °F - 7.0 °F 15% 30.55 in 10.0 mi SSE 6.9 mph 11.5 mph N/A   Clear
6:15 PM 52.7 °F - 9.9 °F 18% 30.55 in 10.0 mi South 8.1 mph 16.1 mph N/A   Clear
6:35 PM 51.8 °F - 10.0 °F 19% 30.56 in 10.0 mi South 10.4 mph - N/A   Clear
6:55 PM 50.2 °F - 7.2 °F 18% 30.56 in 10.0 mi SSE 9.2 mph - N/A   Clear
7:15 PM 48.7 °F - 6.8 °F 18% 30.56 in 10.0 mi SE 6.9 mph - N/A   Clear
7:35 PM 46.8 °F - 6.6 °F 19% 30.57 in 10.0 mi ESE 8.1 mph - N/A   Clear
7:55 PM 45.7 °F 41.5 °F 6.3 °F 20% 30.57 in 10.0 mi ESE 8.1 mph - N/A   Clear
8:15 PM 44.4 °F 39.5 °F 4.6 °F 19% 30.57 in 10.0 mi SE 9.2 mph - N/A   Clear
8:35 PM 43.5 °F 38.9 °F 2.3 °F 18% 30.58 in 10.0 mi SE 8.1 mph - N/A   Clear
8:55 PM 42.8 °F 38.0 °F 1.8 °F 18% 30.58 in 10.0 mi SE 8.1 mph - N/A   Clear
9:15 PM 41.2 °F 37.3 °F 3.2 °F 21% 30.59 in 10.0 mi SE 5.8 mph - N/A   Clear
9:35 PM 40.5 °F 35.8 °F 6.1 °F 24% 30.59 in 10.0 mi SE 6.9 mph - N/A   Clear
9:55 PM 39.6 °F 35.4 °F 8.6 °F 28% 30.59 in 10.0 mi SE 5.8 mph - N/A   Clear
10:15 PM 38.7 °F 34.3 °F 10.2 °F 31% 30.58 in 10.0 mi SE 5.8 mph - N/A   Clear
10:35 PM 37.0 °F 33.3 °F 11.1 °F 34% 30.58 in 10.0 mi SE 4.6 mph - N/A   Clear
10:55 PM 37.0 °F 34.5 °F 13.1 °F 37% 30.58 in 10.0 mi SE 3.5 mph - N/A   Clear
11:15 PM 36.1 °F 33.5 °F 14.4 °F 41% 30.58 in 10.0 mi ESE 3.5 mph - N/A   Clear
11:35 PM 35.6 °F 31.7 °F 15.3 °F 43% 30.58 in 10.0 mi SSE 4.6 mph - N/A   Clear
11:55 PM 34.9 °F - 15.8 °F 46% 30.58 in 10.0 mi Calm Calm - N/A   Clear